Content
SEND FEEDBACK

Daily
Averages
Monthly
Summary
United States of America

PETALUMA, CALIFORNIA


Home > North America > United States > California
Elevation: 1 foot     Latitude: 38 14N     Longitude: 122 38W

WEATHER
 
SELECT A DAY
Number of Records: 76,778;   Date Range: 4/19/11 - 10/22/14
 
SHARE

PRINT THIS DATA

[ ← Previous Day ]
WEATHER ALMANAC - JANUARY 19, 2013
[ Next Day → ]
[ °C ]   °F
Weather ElementAverageHighLow
Temperature41.3 °F59 °F (1:55 pm)26.6 °F (3:55 am)
Dewpoint32.9 °F39.2 °F (3:15 pm)26.6 °F (3:55 am)
Humidity75.8 %100 % (12:35 am)44 % (1:15 pm)
Barometer30.22 in30.27 in (9:35 am)30.18 in (2:55 pm)
Wind Speed3.3 mph11.5 mph (12:55 pm)
Weather ElementAverage
Visibility9.9 mi
Wind DirectionENE (66.4 °)

Weather ElementTotal
Precipitation---
Heating Degree Days22.2 (Base 65)
Averaged from 69 records on January 19, 2013
WEATHER CONDITIONS BREAKOUT
WIND DIRECTION BREAKOUT
WEATHER BY HOUR - JANUARY 19, 2013
[ °C ]   °F
Local TimeTemperatureDewpointHumidityBarometerVisibilityWind DirectionWind SpeedGust SpeedPrecipitationEventsConditions
12:35 AM32.0 °F32.0 °F100 %30.19 in10.0 miCalmClear
12:55 AM32.0 °F30.2 °F93 %30.20 in10.0 miCalmClear
1:15 AM32.0 °F30.2 °F93 %30.20 in10.0 miCalmClear
1:35 AM32.0 °F32.0 °F100 %30.20 in10.0 miCalmClear
1:55 AM30.2 °F28.4 °F93 %30.21 in10.0 miCalmClear
2:15 AM30.2 °F28.4 °F93 %30.21 in10.0 miCalmClear
2:35 AM28.4 °F28.4 °F100 %30.21 in10.0 miCalmClear
2:55 AM28.4 °F28.4 °F100 %30.22 in10.0 miCalmClear
3:15 AM28.4 °F28.4 °F100 %30.22 in10.0 miCalmClear
3:35 AM28.4 °F28.4 °F100 %30.22 in10.0 miCalmClear
3:55 AM26.6 °F26.6 °F100 %30.22 in10.0 miCalmClear
4:15 AM28.4 °F28.4 °F100 %30.22 in10.0 miCalmClear
4:35 AM28.4 °F28.4 °F100 %30.22 in10.0 miCalmClear
4:55 AM26.6 °F26.6 °F100 %30.22 in9.0 miCalmClear
5:15 AM28.4 °F28.4 °F100 %30.22 in10.0 miCalmClear
5:35 AM26.6 °F26.6 °F100 %30.22 in10.0 miCalmClear
5:55 AM26.6 °F26.6 °F100 %30.23 in9.0 miCalmClear
6:15 AM28.4 °F28.4 °F100 %30.23 in8.0 miCalmClear
6:35 AM26.6 °F26.6 °F100 %30.24 in10.0 miCalmClear
6:55 AM26.6 °F26.6 °F100 %30.24 in10.0 miCalmClear
7:35 AM26.6 °F26.6 °F100 %30.24 in9.0 miCalmClear
7:55 AM26.6 °F26.6 °F100 %30.25 in9.0 miCalmClear
8:15 AM28.4 °F28.4 °F100 %30.25 in9.0 miCalmClear
8:35 AM32.0 °F32.0 °F100 %30.25 in9.0 miCalmClear
8:55 AM35.6 °F32.0 °F87 %30.26 in10.0 miCalmClear
9:15 AM37.4 °F33.8 °F87 %30.26 in9.0 miCalmClear
9:35 AM44.6 °F35.6 °F71 %30.27 in10.0 miSE (130°)5.8 mphClear
9:55 AM46.4 °F35.6 °F66 %30.27 in10.0 miSSE (150°)6.9 mphClear
10:15 AM48.2 °F35.6 °F62 %30.27 in10.0 miSSE (150°)10.4 mphClear
10:35 AM48.2 °F35.6 °F62 %30.27 in10.0 miSSE (160°)9.2 mphClear
10:55 AM50.0 °F35.6 °F58 %30.26 in10.0 miSSE (150°)8.1 mphClear
11:15 AM51.8 °F35.6 °F54 %30.25 in10.0 miSSE (150°)8.1 mphClear
11:35 AM53.6 °F35.6 °F51 %30.24 in10.0 miSouth (170°)8.1 mphClear
11:55 AM53.6 °F37.4 °F54 %30.23 in10.0 miSSE (160°)8.1 mphClear
12:15 PM53.6 °F35.6 °F51 %30.23 in10.0 miSSE (150°)9.2 mphClear
12:55 PM55.4 °F35.6 °F47 %30.21 in10.0 miSSE (150°)11.5 mphClear
1:15 PM57.2 °F35.6 °F44 %30.21 in10.0 miSSE (150°)9.2 mphClear
1:35 PM57.2 °F35.6 °F44 %30.20 in10.0 miSSE (150°)10.4 mphClear
1:55 PM59.0 °F37.4 °F45 %30.19 in10.0 miSE (140°)9.2 mphClear
2:15 PM59.0 °F37.4 °F45 %30.19 in10.0 miSE (140°)8.1 mphClear
2:35 PM59.0 °F37.4 °F45 %30.19 in10.0 miSE (130°)6.9 mphClear
2:55 PM59.0 °F37.4 °F45 %30.18 in10.0 miSSE (150°)8.1 mphClear
3:15 PM59.0 °F39.2 °F48 %30.18 in10.0 miSSE (150°)6.9 mphClear
3:35 PM59.0 °F39.2 °F48 %30.18 in10.0 miSE (140°)4.6 mphClear
3:55 PM59.0 °F37.4 °F45 %30.18 in10.0 miSSE (160°)9.2 mphClear
4:15 PM57.2 °F39.2 °F51 %30.18 in10.0 miESE (110°)4.6 mphClear
4:35 PM55.4 °F39.2 °F54 %30.18 in10.0 miESE (110°)4.6 mphClear
4:55 PM53.6 °F39.2 °F58 %30.18 in10.0 miESE (120°)3.5 mphClear
5:15 PM51.8 °F39.2 °F62 %30.18 in10.0 miESE (110°)3.5 mphClear
5:35 PM50.0 °F37.4 °F62 %30.18 in10.0 miESE (110°)4.6 mphClear
5:55 PM48.2 °F37.4 °F66 %30.18 in10.0 miESE (110°)4.6 mphClear
6:15 PM48.2 °F37.4 °F66 %30.18 in10.0 miESE (110°)4.6 mphClear
6:35 PM46.4 °F37.4 °F71 %30.19 in10.0 miESE (110°)3.5 mphClear
6:55 PM46.4 °F35.6 °F66 %30.19 in10.0 miEast (90°)4.6 mphClear
7:15 PM46.4 °F35.6 °F66 %30.19 in10.0 miEast (90°)4.6 mphClear
7:35 PM44.6 °F33.8 °F66 %30.19 in10.0 miESE (110°)3.5 mphClear
7:55 PM42.8 °F33.8 °F70 %30.20 in10.0 miEast (100°)4.6 mphClear
8:15 PM44.6 °F33.8 °F66 %30.21 in10.0 miEast (90°)3.5 mphClear
8:35 PM44.6 °F33.8 °F66 %30.21 in10.0 miEast (80°)5.8 mphClear
8:55 PM42.8 °F32.0 °F66 %30.22 in10.0 miEast (80°)3.5 mphClear
9:15 PM44.6 °F32.0 °F61 %30.22 in10.0 miEast (100°)4.6 mphClear
9:35 PM41.0 °F32.0 °F70 %30.22 in10.0 miESE (120°)3.5 mphClear
9:55 PM39.2 °F32.0 °F75 %30.23 in10.0 miCalmClear
10:15 PM35.6 °F32.0 °F87 %30.24 in10.0 miCalmClear
10:35 PM35.6 °F32.0 °F87 %30.24 in10.0 miCalmClear
10:55 PM35.6 °F32.0 °F87 %30.24 in10.0 miCalmClear
11:15 PM32.0 °F30.2 °F93 %30.24 in10.0 miCalmClear
11:35 PM35.6 °F32.0 °F87 %30.24 in10.0 miCalmClear
11:55 PM32.0 °F30.2 °F93 %30.24 in10.0 miCalmClear
Hourly data recorded from KO69, located miles away from Petaluma, California







STORIES FROM OUR PARTNERS